This is the latest recevied weather packets stored in our database for station/object K6CED. If no packets are shown the sender has not sent any weather packets the latest 10 day(s).
| Time | Temp. | Humidity | Pressure | Rain* | Wind** | Luminosity | Snow |
|---|---|---|---|---|---|---|---|
| 1788384228 | 30° C | 28% | 1017.6 hPa | 0 mm | - | 751 W/m² | - |
| 1788383925 | 30.56° C | 28% | 1017.4 hPa | 0 mm | - | 759 W/m² | - |
| 1788383620 | 30° C | 28% | 1017.5 hPa | 0 mm | - | 765 W/m² | - |
| 1788383315 | 29.44° C | 27% | 1017.6 hPa | 0 mm | - | 770 W/m² | - |
| 1788383015 | 30° C | 30% | 1017.5 hPa | 0 mm | - | 774 W/m² | - |
| 1788382713 | 30° C | 29% | 1017.5 hPa | 0 mm | - | 775 W/m² | - |
| 1788382408 | 28.89° C | 32% | 1017.6 hPa | 0 mm | - | 776 W/m² | - |
| 1788382104 | 29.44° C | 29% | 1017.8 hPa | 0 mm | - | 772 W/m² | - |
| 1788381803 | 29.44° C | 34% | 1018 hPa | 0 mm | - | 769 W/m² | - |
| 1788381499 | 29.44° C | 34% | 1017.9 hPa | 0 mm | - | 763 W/m² | - |
| 1788381194 | 28.89° C | 33% | 1017.9 hPa | 0 mm | - | 755 W/m² | - |
| 1788380894 | 29.44° C | 35% | 1017.9 hPa | 0 mm | - | 748 W/m² | - |
| 1788380590 | 29.44° C | 36% | 1018 hPa | 0 mm | - | 738 W/m² | - |
| 1788380287 | 29.44° C | 35% | 1017.9 hPa | 0 mm | - | 731 W/m² | - |
| 1788379981 | 28.89° C | 34% | 1018 hPa | 0 mm | - | 728 W/m² | - |
| 1788379676 | 29.44° C | 32% | 1017.7 hPa | 0 mm | - | 730 W/m² | - |
| 1788379372 | 28.89° C | 32% | 1018.1 hPa | 0 mm | - | 735 W/m² | - |
| 1788379067 | 28.33° C | 33% | 1018 hPa | 0 mm | - | 741 W/m² | - |
| 1788378766 | 28.89° C | 32% | 1018 hPa | 0 mm | - | 749 W/m² | - |
| 1788378465 | 28.33° C | 33% | 1018.1 hPa | 0 mm | - | 757 W/m² | - |
| 1788378161 | 28.89° C | 33% | 1018.2 hPa | 0 mm | - | 763 W/m² | - |
| 1788377856 | 28.89° C | 35% | 1018.3 hPa | 0 mm | - | 773 W/m² | - |
| 1788377551 | 27.78° C | 37% | 1018.2 hPa | 0 mm | - | 786 W/m² | - |
| 1788377250 | 27.78° C | 36% | 1018.4 hPa | 0 mm | - | 796 W/m² | - |
| 1788376949 | 28.33° C | 38% | 1018.4 hPa | 0 mm | - | 806 W/m² | - |
* Rain latest hour (hover to see other rain measurements)
** Current wind speed in m/s (hover to see current wind gust speed)